Location: Risskov
(56.1972°N, 10.2480°E)
Time: 13:20:51
(UTC+00:00)

Genesis I - Pass Details

Date: 05 July 2020
Orbit: 509 x 513 km, 64.5° (Epoch: 06 August)

Event Time Altitude Azimuth Distance (km) Brightness Sun altitude
Exits shadow 22:18:36 13° 185° (S) 1,573 5.1 -9.9°
Maximum altitude 22:21:36 31° 126° (SE) 912 4.0 -10.0°
Drops below altitude 10° 22:25:04 10° 63° (ENE) 1,741 6.1 -10.2°
Sets 22:27:24 0° 53° (NE) 2,631 7.1 -10.2°
